DW1234 Weather Reports


Display with metric or nautical units.
time (UTC)temp
F
wind
direction
speed
MPH
gust
MPH
rain 1hr
in
rain 24hr
in
rain mn
in
humidity
%
barometer
mb
20260506170745 56 265 7.0 14.0 0.00 0.00 0.00 38 1020.2
20260506170228 57 292 7.0 19.0 0.00 0.00 0.00 37 1020.2
20260506170048 57 347 7.0 19.0 0.00 0.00 0.00 43 1020.3
20260506165739 57 329 7.0 19.0 0.00 0.00 0.00 36 1020.2
20260506165221 58 333 13.0 19.0 0.00 0.00 0.00 38 1020.2
20260506164728 57 315 9.0 18.0 0.00 0.00 0.00 37 1020.3
20260506164559 56 328 8.0 19.0 0.00 0.00 0.00 39 1020.4
20260506164242 56 312 11.0 20.0 0.00 0.00 0.00 38 1020.4
20260506163723 57 320 15.0 20.0 0.00 0.00 0.00 35 1020.3
20260506163237 57 288 13.0 19.0 0.00 0.00 0.00 37 1020.3
20260506163008 56 360 8.0 17.0 0.00 0.00 0.00 38 1020.5
20260506162747 56 348 9.0 20.0 0.00 0.00 0.00 36 1020.3
20260506162232 56 253 9.0 20.0 0.00 0.00 0.00 38 1020.4
20260506161743 57 293 10.0 18.0 0.00 0.00 0.00 38 1020.4
20260506161511 56 294 12.0 18.0 0.00 0.00 0.00 39 1020.5
20260506161226 56 314 11.0 18.0 0.00 0.00 0.00 38 1020.3
20260506160732 55 253 9.0 17.0 0.00 0.00 0.00 39 1020.3
20260506160246 55 306 11.0 16.0 0.00 0.00 0.00 37 1020.2
20260506160015 55 285 9.0 16.0 0.00 0.00 0.00 39 1020.5
20260506155730 55 355 9.0 16.0 0.00 0.00 0.00 38 1020.4
20260506155244 55 309 9.0 13.0 0.00 0.00 0.00 39 1020.2
20260506154726 54 323 4.0 26.0 0.00 0.00 0.00 37 1020.2
20260506154512 54 288 8.0 26.0 0.00 0.00 0.00 39 1020.3
20260506154300 55 293 10.0 26.0 0.00 0.00 0.00 37 1020.2
20260506153723 56 325 7.0 15.0 0.00 0.00 0.00 37 1020.2
20260506153230 55 307 6.0 15.0 0.00 0.00 0.00 40 1020.2
20260506153053 55 302 9.0 19.0 0.00 0.00 0.00 37 1020.4
20260506152743 56 348 9.0 19.0 0.00 0.00 0.00 39 1020.1
20260506152227 56 290 9.0 15.0 0.00 0.00 0.00 39 1020.1
20260506151758 56 295 8.0 14.0 0.00 0.00 0.00 40 1020.0
20260506151538 55 336 9.0 14.0 0.00 0.00 0.00 40 1020.3
20260506151311 56 315 3.0 13.0 0.00 0.00 0.00 41 1020.1
20260506150731 55 303 8.0 13.0 0.00 0.00 0.00 39 1020.1
20260506150241 54 336 5.0 13.0 0.00 0.00 0.00 41 1020.2
20260506150016 53 336 3.0 13.0 0.00 0.00 0.00 44 1020.4
20260506145747 54 324 8.0 13.0 0.00 0.00 0.00 43 1020.2
20260506145237 53 323 5.0 11.0 0.00 0.00 0.00 44 1020.3
20260506144721 54 313 7.0 10.0 0.00 0.00 0.00 45 1020.2
20260506144504 53 329 4.0 10.0 0.00 0.00 0.00 42 1020.5
20260506144236 53 355 5.0 10.0 0.00 0.00 0.00 43 1020.2
20260506143745 54 355 4.0 10.0 0.00 0.00 0.00 45 1020.3
20260506143255 53 340 6.0 8.0 0.00 0.00 0.00 44 1020.2
20260506143033 52 336 4.0 8.0 0.00 0.00 0.00 47 1020.4
20260506142743 53 329 4.0 12.0 0.00 0.00 0.00 43 1020.2
20260506142226 52 323 7.0 12.0 0.00 0.00 0.00 44 1020.2
20260506141738 51 347 5.0 10.0 0.00 0.00 0.00 43 1020.1
20260506141532 51 5 6.0 10.0 0.00 0.00 0.00 44 1020.4
20260506141312 52 328 5.0 10.0 0.00 0.00 0.00 43 1020.2
20260506140733 51 342 6.0 10.0 0.00 0.00 0.00 44 1020.1
20260506140244 52 314 3.0 10.0 0.00 0.00 0.00 50 1020.1
20260506140018 50 316 4.0 10.0 0.00 0.00 0.00 51 1020.3
20260506135726 50 360 6.0 10.0 0.00 0.00 0.00 47 1020.0
20260506135238 50 355 7.0 10.0 0.00 0.00 0.00 47 1019.8
20260506134746 49 5 6.0 10.0 0.00 0.00 0.00 48 1019.8
20260506134514 49 5 8.0 10.0 0.00 0.00 0.00 48 1020.1
20260506134230 49 22 6.0 10.0 0.00 0.00 0.00 48 1019.7
20260506133740 49 5 6.0 9.0 0.00 0.00 0.00 48 1019.7
20260506133223 49 342 3.0 8.0 0.00 0.00 0.00 52 1019.7
20260506133006 48 355 2.0 8.0 0.00 0.00 0.00 53 1020.0
20260506132732 48 321 4.0 8.0 0.00 0.00 0.00 54 1019.7
20260506132242 48 5 5.0 8.0 0.00 0.00 0.00 51 1019.6
20260506131723 48 298 4.0 9.0 0.00 0.00 0.00 53 1019.6
20260506131548 47 360 4.0 9.0 0.00 0.00 0.00 55 1019.8
20260506131233 47 343 5.0 9.0 0.00 0.00 0.00 52 1019.5
20260506130744 47 350 4.0 8.0 0.00 0.00 0.00 54 1019.4
20260506130228 46 321 3.0 9.0 0.00 0.00 0.00 57 1019.4
20260506130050 45 324 5.0 9.0 0.00 0.00 0.00 56 1019.6
20260506125739 45 325 6.0 9.0 0.00 0.00 0.00 55 1019.3
20260506125222 45 310 6.0 9.0 0.00 0.00 0.00 56 1019.4
20260506124754 44 315 5.0 9.0 0.00 0.00 0.00 58 1019.3
20260506124534 44 321 4.0 6.0 0.00 0.00 0.00 59 1019.5
20260506124246 44 320 3.0 8.0 0.00 0.00 0.00 59 1019.1
20260506123728 43 329 4.0 8.0 0.00 0.00 0.00 59 1019.0
20260506123256 43 302 4.0 8.0 0.00 0.00 0.00 59 1018.9
20260506123006 42 309 3.0 8.0 0.00 0.00 0.00 59 1019.1
20260506122748 43 313 5.0 8.0 0.00 0.00 0.00 59 1018.9
20260506122227 42 323 3.0 5.0 0.00 0.00 0.00 60 1018.8
20260506121737 42 323 2.0 4.0 0.00 0.00 0.00 59 1018.6
20260506121556 41 323 2.0 4.0 0.00 0.00 0.00 59 1018.8
20260506121249 41 323 3.0 4.0 0.00 0.00 0.00 59 1018.6
20260506120730 41 323 2.0 4.0 0.00 0.00 0.00 59 1018.5
20260506120243 41 348 2.0 4.0 0.00 0.00 0.00 59 1018.5
20260506120039 40 347 2.0 4.0 0.00 0.00 0.00 59 1018.7
20260506115730 40 348 3.0 6.0 0.00 0.00 0.00 59 1018.4
20260506115240 40 330 3.0 6.0 0.00 0.00 0.00 58 1018.4
20260506114725 40 317 4.0 5.0 0.00 0.00 0.00 58 1018.3
20260506114540 40 327 3.0 5.0 0.00 0.00 0.00 58 1018.4
20260506114239 41 330 3.0 5.0 0.00 0.00 0.00 58 1018.1
20260506113749 41 325 4.0 5.0 0.00 0.00 0.00 58 1018.1
20260506113242 41 318 3.0 5.0 0.00 0.00 0.00 58 1018.1
20260506113022 40 319 3.0 5.0 0.00 0.00 0.00 58 1018.3
20260506112724 41 315 3.0 5.0 0.00 0.00 0.00 58 1018.2
20260506112231 41 317 3.0 5.0 0.00 0.00 0.00 57 1018.1
20260506111742 41 325 3.0 4.0 0.00 0.00 0.00 57 1018.1
20260506111528 41 314 2.0 4.0 0.00 0.00 0.00 57 1018.3
20260506111254 41 311 3.0 4.0 0.00 0.00 0.00 57 1018.1
20260506110723 41 315 3.0 5.0 0.00 0.00 0.00 57 1018.0
20260506110234 41 315 3.0 5.0 0.00 0.00 0.00 56 1017.9
20260506110052 41 315 3.0 5.0 0.00 0.00 0.00 56 1018.1
20260506105745 42 318 3.0 5.0 0.00 0.00 0.00 56 1018.0
20260506105226 42 315 3.0 5.0 0.00 0.00 0.00 55 1018.0
20260506104734 42 316 4.0 5.0 0.00 0.00 0.00 54 1018.0
20260506104600 41 326 3.0 4.0 0.00 0.00 0.00 54 1018.2
20260506104248 42 330 3.0 4.0 0.00 0.00 0.00 54 1018.0
20260506103730 42 328 3.0 4.0 0.00 0.00 0.00 53 1018.0
20260506103240 42 321 3.0 6.0 0.00 0.00 0.00 53 1017.9
20260506103058 42 327 3.0 6.0 0.00 0.00 0.00 53 1018.1
20260506102724 42 319 4.0 6.0 0.00 0.00 0.00 53 1017.9
20260506102235 42 329 5.0 6.0 0.00 0.00 0.00 53 1017.9
20260506101745 42 327 4.0 6.0 0.00 0.00 0.00 53 1017.9
20260506101558 42 317 4.0 6.0 0.00 0.00 0.00 53 1017.9
20260506101229 43 319 4.0 6.0 0.00 0.00 0.00 52 1017.8
20260506100735 43 323 4.0 6.0 0.00 0.00 0.00 52 1017.7
20260506100245 43 325 4.0 6.0 0.00 0.00 0.00 52 1017.7
20260506100100 42 327 4.0 7.0 0.00 0.00 0.00 52 1017.9
20260506095728 43 325 4.0 5.0 0.00 0.00 0.00 51 1017.7
20260506095300 43 317 4.0 5.0 0.00 0.00 0.00 51 1017.6
20260506094749 43 332 4.0 5.0 0.00 0.00 0.00 50 1017.6
20260506094536 43 332 3.0 5.0 0.00 0.00 0.00 50 1017.7
20260506094234 44 339 3.0 5.0 0.00 0.00 0.00 50 1017.5
20260506093744 44 336 4.0 6.0 0.00 0.00 0.00 50 1017.5
20260506093310 44 329 4.0 6.0 0.00 0.00 0.00 49 1017.5
20260506093047 43 317 3.0 5.0 0.00 0.00 0.00 49 1017.7
20260506092732 44 324 4.0 5.0 0.00 0.00 0.00 49 1017.4
20260506092306 44 327 3.0 4.0 0.00 0.00 0.00 49 1017.4
20260506091725 44 329 3.0 4.0 0.00 0.00 0.00 49 1017.3
20260506091527 44 333 3.0 4.0 0.00 0.00 0.00 49 1017.4
20260506091237 44 336 2.0 5.0 0.00 0.00 0.00 49 1017.3
20260506090748 44 336 3.0 6.0 0.00 0.01 0.00 49 1017.3
20260506090231 45 340 3.0 8.0 0.00 0.01 0.00 48 1017.3
20260506090031 44 344 4.0 8.0 0.00 0.01 0.00 48 1017.4
20260506085738 45 351 4.0 8.0 0.00 0.01 0.00 48 1017.2
20260506085249 45 336 4.0 6.0 0.00 0.01 0.00 48 1017.2
20260506084739 45 345 3.0 5.0 0.00 0.01 0.00 48 1017.2
20260506084511 44 341 3.0 5.0 0.00 0.01 0.00 48 1017.3
20260506084310 45 348 3.0 5.0 0.00 0.01 0.00 48 1017.1
20260506083730 45 344 3.0 5.0 0.00 0.01 0.00 48 1017.0
20260506083242 45 338 3.0 5.0 0.00 0.01 0.00 48 1017.0
20260506083050 45 342 3.0 5.0 0.00 0.01 0.00 48 1017.2
20260506082723 45 333 3.0 5.0 0.00 0.01 0.00 48 1016.9
20260506082250 45 348 4.0 5.0 0.00 0.01 0.00 47 1016.9
20260506081741 45 341 4.0 5.0 0.00 0.01 0.00 47 1016.9
20260506081527 45 344 3.0 5.0 0.00 0.01 0.00 47 1017.0
20260506081254 45 343 3.0 5.0 0.00 0.01 0.00 47 1016.9
20260506080740 45 335 3.0 6.0 0.00 0.01 0.00 47 1016.9
20260506080222 46 336 3.0 5.0 0.00 0.01 0.00 46 1016.8
20260506073239 46 360 4.0 6.0 0.00 0.01 0.00 45 1016.5
20260506073023 46 350 3.0 5.0 0.00 0.01 0.00 45 1016.7
20260506072749 46 355 4.0 5.0 0.00 0.01 0.00 45 1016.6
20260506072240 47 348 4.0 6.0 0.00 0.01 0.00 45 1016.6
20260506071747 47 348 4.0 6.0 0.00 0.01 0.00 45 1016.6
20260506071505 46 355 4.0 6.0 0.00 0.01 0.00 45 1016.7
20260506071233 47 5 4.0 9.0 0.00 0.01 0.00 45 1016.6
20260506070743 47 355 4.0 9.0 0.00 0.01 0.00 45 1016.7
20260506070226 47 360 5.0 6.0 0.00 0.01 0.00 44 1016.6
20260506062230 48 355 4.0 8.0 0.00 0.01 0.00 43 1016.7
20260506061742 48 5 6.0 9.0 0.00 0.01 0.00 42 1016.6
20260506061535 47 5 4.0 9.0 0.00 0.01 0.00 42 1016.7
20260506061228 48 339 5.0 9.0 0.00 0.01 0.00 42 1016.7
20260506060740 48 329 5.0 9.0 0.00 0.01 0.00 42 1016.6
20260506060222 48 343 6.0 10.0 0.00 0.01 0.00 41 1016.5
20260506051240 49 355 6.0 12.0 0.00 0.01 0.00 40 1016.1
20260506050749 49 351 7.0 12.0 0.00 0.01 0.01 41 1015.9
20260506050233 49 328 7.0 11.0 0.00 0.01 0.01 41 1015.9
20260506050107 49 346 6.0 11.0 0.00 0.01 0.01 40 1016.0
20260506044733 50 344 6.0 10.0 0.00 0.01 0.01 40 1015.8
20260506044510 49 355 5.0 10.0 0.00 0.01 0.01 40 1015.7
20260506044242 50 355 6.0 10.0 0.00 0.01 0.01 40 1015.6
20260506043724 50 355 6.0 9.0 0.00 0.01 0.01 40 1015.7
20260506043235 50 344 8.0 11.0 0.00 0.01 0.01 40 1015.7
20260506043016 49 360 6.0 11.0 0.00 0.01 0.01 40 1015.7
20260506042748 50 360 8.0 11.0 0.00 0.01 0.01 40 1015.7
20260506042232 50 350 7.0 10.0 0.00 0.01 0.01 40 1015.6
20260506041744 50 348 5.0 9.0 0.00 0.01 0.01 40 1015.6
20260506041516 50 343 5.0 9.0 0.00 0.01 0.01 41 1015.6
20260506041229 50 347 6.0 9.0 0.00 0.01 0.01 40 1015.5
20260506040740 50 360 5.0 9.0 0.00 0.01 0.01 40 1015.4
20260506040247 50 342 5.0 9.0 0.00 0.01 0.01 40 1015.4
20260506040033 50 351 5.0 10.0 0.00 0.01 0.01 40 1015.4
20260506035731 51 355 5.0 10.0 0.00 0.01 0.01 40 1015.4
20260506035306 51 348 6.0 10.0 0.00 0.01 0.01 39 1015.4
20260506034725 51 333 7.0 10.0 0.00 0.01 0.01 39 1015.5
20260506034556 50 360 6.0 11.0 0.00 0.01 0.01 39 1015.5
20260506034237 51 350 6.0 11.0 0.00 0.01 0.01 39 1015.5
20260506033746 51 344 6.0 11.0 0.00 0.01 0.01 39 1015.4
20260506033230 51 345 7.0 11.0 0.00 0.01 0.01 38 1015.4
20260506033058 51 348 6.0 11.0 0.00 0.01 0.01 38 1015.4
20260506032737 51 345 7.0 10.0 0.00 0.01 0.01 38 1015.3
20260506032249 51 5 7.0 10.0 0.00 0.01 0.01 38 1015.3
20260506031738 51 343 7.0 10.0 0.00 0.01 0.01 38 1015.3
20260506031546 51 348 7.0 10.0 0.00 0.01 0.01 38 1015.2
20260506031224 52 360 7.0 11.0 0.00 0.01 0.01 38 1015.2
20260506030736 52 327 7.0 14.0 0.00 0.01 0.01 37 1015.2
20260506030248 52 5 10.0 14.0 0.00 0.01 0.01 37 1015.1
20260506030057 51 342 8.0 16.0 0.00 0.01 0.01 37 1015.1
20260506025732 52 355 8.0 16.0 0.00 0.01 0.01 37 1015.0
20260506025243 52 351 12.0 16.0 0.00 0.01 0.01 36 1014.9
20260506024721 52 355 12.0 16.0 0.00 0.01 0.01 36 1014.7
20260506024552 51 335 9.0 14.0 0.00 0.01 0.01 37 1014.7
20260506024254 52 345 8.0 14.0 0.00 0.01 0.01 37 1014.7
20260506023744 52 9 9.0 15.0 0.00 0.01 0.01 37 1014.7
20260506023230 52 336 10.0 15.0 0.00 0.01 0.01 37 1014.6
20260506023042 52 355 9.0 15.0 0.00 0.01 0.01 37 1014.6
20260506022744 52 345 9.0 15.0 0.00 0.01 0.01 37 1014.5
20260506022229 52 329 9.0 15.0 0.00 0.01 0.01 37 1014.4
20260506021739 52 14 10.0 15.0 0.00 0.01 0.01 37 1014.3
20260506021536 52 342 10.0 16.0 0.00 0.01 0.01 37 1014.3
20260506021247 53 5 11.0 16.0 0.00 0.01 0.01 37 1014.3
20260506020729 53 355 11.0 17.0 0.00 0.01 0.01 37 1014.3
20260506020238 53 346 11.0 18.0 0.00 0.01 0.01 36 1014.3
20260506020036 52 342 10.0 18.0 0.00 0.01 0.01 36 1014.2
20260506015749 53 343 12.0 17.0 0.00 0.01 0.01 36 1014.2
20260506015238 53 334 12.0 16.0 0.00 0.01 0.01 37 1014.0
20260506014723 53 13 10.0 14.0 0.00 0.01 0.01 37 1014.1
20260506014513 52 355 10.0 15.0 0.00 0.01 0.01 37 1014.0
20260506014237 53 335 8.0 15.0 0.00 0.01 0.01 38 1014.0
20260506013745 53 355 9.0 15.0 0.00 0.01 0.01 37 1013.9
20260506013228 53 348 9.0 18.0 0.00 0.01 0.01 37 1013.9
20260506013105 53 5 9.0 18.0 0.00 0.01 0.01 37 1013.9
20260506013006 53 355 9.0 18.0 0.00 0.01 0.01 37 1013.8
20260506012721 53 342 10.0 18.0 0.00 0.01 0.01 37 1013.9
20260506012235 54 360 12.0 17.0 0.00 0.01 0.01 36 1013.8
20260506011721 54 349 12.0 19.0 0.00 0.01 0.01 36 1013.7
20260506011517 53 320 12.0 19.0 0.00 0.01 0.01 36 1013.6
20260506011235 54 342 10.0 19.0 0.00 0.01 0.01 36 1013.7
20260506010745 54 331 11.0 19.0 0.00 0.01 0.01 36 1013.6
20260506010226 54 342 11.0 19.0 0.00 0.01 0.01 35 1013.6
20260506010041 54 360 13.0 22.0 0.00 0.01 0.01 35 1013.4
20260506005739 54 341 11.0 22.0 0.00 0.01 0.01 35 1013.5
20260506005221 54 348 12.0 22.0 0.00 0.01 0.01 35 1013.6
20260506004733 54 355 10.0 18.0 0.00 0.01 0.01 36 1013.5
20260506004525 54 333 11.0 18.0 0.00 0.01 0.01 35 1013.4
20260506004308 54 355 13.0 19.0 0.00 0.01 0.01 35 1013.4
20260506003729 55 344 14.0 21.0 0.00 0.01 0.01 35 1013.3
20260506003243 55 355 11.0 23.0 0.00 0.01 0.01 35 1013.2
20260506003011 54 360 14.0 23.0 0.00 0.01 0.01 35 1012.9
20260506002729 55 336 16.0 23.0 0.00 0.01 0.01 34 1013.2
20260506002305 55 360 12.0 22.0 0.00 0.01 0.01 35 1013.2
20260506001722 55 344 13.0 22.0 0.00 0.01 0.01 34 1013.2
20260506001549 55 313 16.0 22.0 0.00 0.01 0.01 34 1013.0
20260506001235 55 317 11.0 19.0 0.00 0.01 0.01 35 1013.3
20260506000745 55 5 14.0 19.0 0.00 0.01 0.01 34 1013.3
20260506000235 55 350 13.0 18.0 0.00 0.01 0.01 34 1013.2
20260506000011 55 333 13.0 21.0 0.00 0.01 0.01 35 1013.0
20260505235747 56 355 12.0 21.0 0.00 0.01 0.01 35 1013.1
20260505235234 56 350 14.0 21.0 0.00 0.01 0.01 34 1013.1
20260505234746 56 355 14.0 22.0 0.00 0.01 0.01 34 1013.0
20260505234532 56 5 14.0 26.0 0.00 0.01 0.01 35 1012.8
20260505234228 56 346 14.0 26.0 0.00 0.01 0.01 34 1013.0
20260505233738 57 330 19.0 26.0 0.00 0.01 0.01 34 1012.9
20260505233251 57 340 18.0 24.0 0.00 0.01 0.01 34 1012.8
20260505233027 56 327 16.0 21.0 0.00 0.01 0.01 34 1012.6
20260505232732 57 291 12.0 19.0 0.00 0.01 0.01 35 1012.7
20260505232244 57 327 12.0 17.0 0.00 0.01 0.01 35 1012.7
20260505231728 57 339 12.0 19.0 0.00 0.01 0.01 35 1012.7
20260505231519 56 338 11.0 19.0 0.00 0.01 0.01 35 1012.5
20260505231239 57 329 13.0 19.0 0.00 0.01 0.01 34 1012.6
20260505230747 57 326 10.0 19.0 0.00 0.01 0.01 34 1012.7
20260505230236 57 287 11.0 19.0 0.00 0.01 0.01 34 1012.8
20260505230042 57 355 12.0 19.0 0.00 0.01 0.01 34 1012.6
20260505225749 57 336 14.0 19.0 0.00 0.01 0.01 34 1012.8
20260505225231 57 338 12.0 18.0 0.00 0.01 0.01 35 1012.7
20260505224804 57 331 12.0 18.0 0.00 0.01 0.01 35 1012.7
20260505224532 57 355 12.0 18.0 0.00 0.01 0.01 34 1012.5
20260505224231 57 338 12.0 18.0 0.00 0.01 0.01 35 1012.7
20260505223742 58 319 10.0 17.0 0.00 0.01 0.01 35 1012.8
20260505223231 58 325 11.0 17.0 0.00 0.01 0.01 36 1012.7
20260505223021 58 292 10.0 17.0 0.00 0.01 0.01 35 1012.5
20260505222726 58 315 10.0 18.0 0.00 0.01 0.01 35 1012.7
20260505222239 58 306 11.0 18.0 0.00 0.01 0.01 35 1012.7
20260505221749 58 312 12.0 18.0 0.00 0.01 0.01 35 1012.7
20260505221530 58 326 11.0 18.0 0.00 0.01 0.01 36 1012.4
20260505221233 58 5 8.0 12.0 0.00 0.01 0.01 37 1012.7
20260505220740 58 355 7.0 12.0 0.00 0.01 0.01 36 1012.7
20260505220222 58 325 9.0 19.0 0.00 0.01 0.01 36 1012.7
20260505220033 57 290 9.0 19.0 0.00 0.01 0.01 37 1012.4
20260505215735 58 308 10.0 19.0 0.00 0.01 0.01 36 1012.7
20260505215242 58 333 12.0 18.0 0.00 0.01 0.01 36 1012.7
20260505214725 58 355 12.0 22.0 0.00 0.01 0.01 35 1012.8
20260505214558 57 314 12.0 22.0 0.00 0.01 0.01 35 1012.4
20260505214238 58 332 14.0 22.0 0.00 0.01 0.01 36 1012.8
20260505213723 58 317 11.0 19.0 0.00 0.01 0.01 36 1012.8
20260505213236 58 341 13.0 19.0 0.00 0.01 0.01 35 1012.9
20260505213056 58 331 13.0 19.0 0.00 0.01 0.01 36 1012.5
20260505212731 58 331 14.0 19.0 0.00 0.01 0.01 35 1012.8
20260505212225 59 335 8.0 19.0 0.00 0.01 0.01 38 1012.9
20260505211737 58 321 9.0 20.0 0.00 0.01 0.01 38 1013.0
20260505211545 58 5 13.0 20.0 0.00 0.01 0.01 36 1012.7
20260505211224 58 329 14.0 18.0 0.00 0.01 0.01 36 1013.0
20260505210731 59 327 13.0 18.0 0.00 0.01 0.01 36 1013.1
20260505210244 59 323 12.0 23.0 0.00 0.01 0.01 36 1013.1
20260505210058 59 346 12.0 23.0 0.00 0.01 0.01 36 1012.7
20260505205727 59 327 14.0 23.0 0.00 0.01 0.01 35 1013.0
20260505205239 59 326 14.0 21.0 0.00 0.01 0.01 35 1013.0
20260505204723 59 5 9.0 21.0 0.00 0.01 0.01 36 1013.2
20260505204605 59 319 14.0 21.0 0.00 0.01 0.01 34 1012.8
20260505204500 59 336 14.0 21.0 0.00 0.01 0.01 35 1012.7
20260505204238 60 317 12.0 21.0 0.00 0.01 0.01 37 1013.1
20260505203748 59 317 12.0 18.0 0.00 0.01 0.01 36 1013.2
20260505203229 59 342 12.0 19.0 0.00 0.01 0.01 35 1013.2
20260505203015 59 355 11.0 20.0 0.00 0.01 0.01 37 1012.8
20260505202737 59 345 12.0 20.0 0.00 0.01 0.01 35 1013.2
20260505202246 60 325 14.0 20.0 0.00 0.01 0.01 35 1013.3
20260505201731 60 336 11.0 21.0 0.00 0.01 0.01 36 1013.3
20260505201510 59 329 13.0 22.0 0.00 0.01 0.01 35 1013.0
20260505201244 60 325 14.0 22.0 0.00 0.01 0.01 36 1013.4
20260505200733 60 312 13.0 22.0 0.00 0.01 0.01 36 1013.5
20260505200245 61 360 9.0 16.0 0.00 0.01 0.01 37 1013.4
20260505200031 60 35 7.0 14.0 0.00 0.01 0.01 40 1012.9
20260505195735 60 348 8.0 14.0 0.00 0.01 0.01 38 1013.5
20260505195243 60 360 11.0 15.0 0.00 0.01 0.01 35 1013.5
20260505194725 59 321 11.0 17.0 0.00 0.01 0.01 35 1013.6
20260505194544 59 315 12.0 17.0 0.00 0.01 0.01 37 1013.2
20260505194237 59 282 10.0 17.0 0.00 0.01 0.01 38 1013.7
20260505193748 59 347 12.0 23.0 0.00 0.01 0.01 35 1013.6
20260505193230 59 5 13.0 23.0 0.00 0.01 0.01 36 1013.6
20260505193048 59 17 13.0 23.0 0.00 0.01 0.01 36 1013.2
20260505192801 60 332 9.0 15.0 0.00 0.01 0.01 37 1013.7
20260505192224 60 261 10.0 16.0 0.00 0.01 0.01 38 1013.7
20260505191736 60 338 12.0 16.0 0.00 0.01 0.01 37 1013.8
20260505191527 59 323 11.0 17.0 0.00 0.01 0.01 37 1013.2
20260505191243 59 344 10.0 18.0 0.00 0.01 0.01 39 1013.8
20260505190723 59 338 13.0 18.0 0.00 0.01 0.01 37 1013.8
20260505190234 59 347 9.0 13.0 0.00 0.01 0.01 40 1013.9
20260505190027 59 302 7.0 13.0 0.00 0.01 0.01 40 1013.3
20260505185745 59 348 5.0 10.0 0.00 0.01 0.01 40 1013.9
20260505185226 60 290 7.0 10.0 0.00 0.01 0.01 42 1013.9
20260505184758 60 17 4.0 13.0 0.00 0.01 0.01 44 1013.9
20260505184511 60 5 5.0 13.0 0.00 0.01 0.01 43 1013.4
20260505184251 61 300 8.0 13.0 0.00 0.01 0.01 42 1014.1
20260505183728 60 308 7.0 18.0 0.00 0.01 0.01 42 1014.0
20260505183238 59 355 7.0 21.0 0.00 0.01 0.01 40 1014.2
20260505183016 59 355 11.0 21.0 0.00 0.01 0.01 39 1013.5
20260505182722 60 338 15.0 21.0 0.00 0.01 0.01 40 1014.2
20260505182235 59 325 10.0 18.0 0.00 0.01 0.01 41 1014.2
20260505181746 60 350 10.0 18.0 0.00 0.01 0.01 40 1014.3
20260505181554 59 344 8.0 18.0 0.00 0.01 0.01 44 1013.7
20260505181238 58 318 4.0 11.0 0.00 0.01 0.01 45 1014.3
20260505180748 60 317 8.0 17.0 0.00 0.01 0.01 41 1014.3
20260505180230 59 325 12.0 17.0 0.00 0.01 0.01 44 1014.3
20260505180106 58 290 7.0 15.0 0.00 0.01 0.01 46 1013.7
20260505175737 58 313 4.0 13.0 0.00 0.01 0.01 50 1014.4
20260505175249 58 302 7.0 14.0 0.00 0.01 0.01 46 1014.3
20260505174732 57 11 9.0 14.0 0.00 0.01 0.01 43 1014.2
20260505174604 57 28 10.0 14.0 0.00 0.01 0.01 42 1013.6
20260505174307 58 360 11.0 15.0 0.00 0.01 0.01 44 1014.3
20260505173729 58 326 8.0 16.0 0.00 0.01 0.01 43 1014.3
20260505173242 59 340 9.0 15.0 0.00 0.01 0.01 44 1014.4
20260505173042 57 320 6.0 15.0 0.00 0.01 0.01 45 1013.9
20260505172723 58 15 6.0 15.0 0.00 0.01 0.01 45 1014.6
20260505172229 56 13 8.0 15.0 0.00 0.01 0.01 43 1014.6
20260505171744 56 324 8.0 15.0 0.00 0.01 0.01 47 1014.6
20260505171541 56 329 3.0 15.0 0.00 0.01 0.01 46 1013.9
20260505171230 57 321 9.0 15.0 0.00 0.01 0.01 44 1014.7